Find Starlink 34067

NORAD ID: 64115 Int'l Des: 2025-110 Owner: SPXS Country: US Constellation: starlink operational
LEOCIRCULAR

当前视图

正在加载3D地球...

About Starlink 34067

Starlink 34067 (NORAD 64115) is a starlink constellation satellite (v2 mini) launched May 23, 2025 by SPXS of US. It operates in LEO, CIRCULAR orbit with a mass of 575.00 kg.

即将过境

Passes for default location (London). Set your location on the main map for personalized predictions.

高度历史

Loading altitude history...

两行轨道根数

1 64115U 25110V 26236.62363049 .00066651 00000-0 16118-2 0 9991
2 64115 53.1604 322.5085 0005011 335.3627 24.7138 15.40538304 71656
Epoch: Aug 24, 2026 • Age: 21 hours

当前状态

高度 451.5 km
远地点 / 近地点 N/A
速度 7.65 km/s
星下点 52.79°N, 109.94°W
发射日期 May 23, 2025
运行时间 1.2 years
类型 internet

技术详情

分类 Payload
质量 575.00 kg
干质量 530.00 kg
总质量 575.00 kg
长度 0.30 m
直径 4.10 m
跨度 29.00 m
形状 Box + pan
制造商 SPXS
平台类型 Starlink V2MO
阶段状态 In Orbit
所有者/国家 SPXS/US

Most Searched